Location: *
(26.3740°N, 146.7320°E)
Time: 15:44:00
(UTC+00:00)

Daily predictions for brighter satellites

Satellite Brightness Start Highest point End
(mag) Time Altitude Azimuth Time Altitude Azimuth Time Altitude Azimuth
SPOT 5 3.8 12:08:24 47° NNW 12:08:24 47° NNW 12:12:05 10° NNW
SPOT 1/Viking Rocket 4.2 12:09:17 51° NNW 12:09:17 51° NNW 12:13:08 10° NNW
H-2A R/B 3.5 12:08:42 29° W 12:08:46 29° W 12:13:18 10° NW
ATLAS 3B R/B 4.4 12:05:04 10° N 12:09:19 18° NE 12:09:45 18° NE
ATLAS 2AS CENTAUR R/B 4.0 12:11:34 10° SW 12:18:44 44° WNW 12:26:21 10° NNE
Lacrosse 5 4.5 12:17:03 10° W 12:20:26 18° NW 12:23:49 10° N
Cosmos 1553 Rocket 4.4 12:23:14 53° WNW 12:23:14 53° WNW 12:28:51 10° N
CZ-2C R/B 4.2 12:34:28 46° N 12:34:28 46° N 12:38:29 10° N
BREEZE-M DEB (TANK) 4.3 12:39:52 10° NW 13:00:06 72° W 13:00:06 72° W
CZ-2C R/B 4.2 12:56:30 10° N 12:59:40 31° NNW 12:59:40 31° NNW
Cosmos 2278 Rocket 3.9 13:19:16 28° NNW 13:19:16 28° NNW 13:22:27 10° N
USA 234 4.2 13:21:20 10° NE 13:25:24 41° NNE 13:25:24 41° NNE
ADEOS Rocket 4.4 13:27:04 10° NNE 13:30:06 33° NNE 13:30:06 33° NNE
ATLAS 3B R/B 4.1 13:53:53 10° NW 13:56:59 29° NW 13:56:59 29° NW
Cosmos 2082 Rocket 4.2 14:07:46 10° NNW 14:09:58 24° N 14:09:58 24° N
Cosmos 1943 Rocket 4.2 14:51:13 22° NE 14:51:13 22° NE 14:53:07 10° NNE
CZ-2D R/B 4.5 15:08:37 10° NE 15:10:19 16° ENE 15:10:19 16° ENE
CENTAUR R/B 3.6 15:05:32 10° NNW 15:11:41 54° NW 15:11:41 54° NW
SL-16 R/B 4.1 15:29:26 25° E 15:30:21 26° ENE 15:35:18 10° NNE
Cosmos 2369 Rocket 4.0 15:36:45 25° NNW 15:36:45 25° NNW 15:39:33 10° N
Nadezhda 3 Rocket 4.5 15:51:45 57° NNE 15:51:45 57° NNE 15:56:47 10° N
Resurs 1-4 Rocket 3.4 15:45:22 10° NNE 15:48:41 36° NE 15:48:41 36° NE
H-II Stage 2 3.8 16:00:31 60° ESE 16:00:31 60° ESE 16:19:36 10° ESE
Lacrosse 4 Rocket 3.4 16:21:00 27° N 16:21:00 27° N 16:23:05 10° NNE
BREEZE-M R/B 4.1 16:24:55 61° SSE 16:25:38 64° SE 16:29:59 10° ENE
Cosmos 1943 Rocket 4.4 16:32:43 13° NW 16:32:43 13° NW 16:34:24 10° NNW
Meteor 1-10 Rocket 4.3 16:28:08 10° N 16:33:39 70° ENE 16:33:39 70° ENE
ARIANE 5 R/B 2.9 16:31:39 10° NNE 16:35:42 59° NNE 16:35:42 59° NNE
ATLAS CENTAUR R/B 3.8 16:39:41 15° E 16:39:41 15° E 16:41:03 10° ENE
Cosmos 1867 4.3 16:44:54 41° NW 16:44:54 41° NW 16:49:26 10° N
Cosmos 1703 Rocket 4.5 16:40:15 10° N 16:43:24 45° NNE 16:43:24 45° NNE
GPS 2-04 Rocket1 4.5 16:47:18 29° E 16:47:18 29° E 16:49:24 10° ENE
ADEOS 3.9 16:43:53 10° NNE 16:49:02 58° ESE 16:49:30 55° SE
Cosmos 1763 Rocket 3.4 16:45:44 10° NNW 16:50:35 77° NE 16:50:35 77° NE
Cosmos 1821 Rocket 3.9 16:44:40 10° NNW 16:50:56 68° W 16:51:08 67° WSW
SEDSat Delta rocket 3.9 16:52:09 43° NE 16:52:09 43° NE 16:55:30 10° E
CZ-2D R/B 3.2 16:47:50 10° N 16:51:38 31° NW 16:51:38 31° NW
Cosmos 44 3.4 16:55:19 67° NE 16:55:19 67° NE 16:59:30 10° NNE
UNKNOWN OBJECT B 3.6 16:51:46 10° NNE 16:54:51 50° NE 16:54:51 50° NE
ATLAS 2A CENTAUR R/B 3.3 16:54:55 46° SSW 16:57:27 56° SSE 17:03:27 10° E
DASH 4.2 16:58:03 45° W 17:00:18 85° N 17:39:57 10° E
DASH 4.2 16:58:03 45° W 17:00:19 85° N 17:39:57 10° E
DASH 4.2 16:58:02 44° W 17:00:19 85° N 17:39:58 10° E
DASH 4.2 16:58:03 45° W 17:00:19 85° N 17:39:58 10° E
CZ-3A R/B 4.1 16:42:11 10° NW 17:00:50 83° SW 17:07:17 10° SSE
COSMOS 2455 4.4 16:56:10 10° N 17:01:35 34° ENE 17:06:57 10° SE
Cosmos 1814 Rocket 3.8 16:56:46 10° NNW 17:02:03 88° W 17:02:27 77° S
ATLAS 5 CENTAUR R/B 3.6 17:02:42 36° WNW 17:03:58 41° NW 17:16:14 10° NNE
Okean 1-7 3.2 17:00:09 10° N 17:04:02 69° N 17:04:02 69° N
ADEOS II 2.4 17:00:18 10° NNE 17:05:30 61° E 17:06:53 45° SSE
Cosmos 1818 3.8 17:00:39 10° NNW 17:06:05 67° ENE 17:11:28 10° SE
Cosmos 1733 Rocket 3.9 17:06:50 38° SE 17:07:41 43° E 17:11:47 10° NNE
Cosmos 389 Rocket 3.4 17:12:31 44° E 17:12:31 44° E 17:15:54 10° NNE
Helios 1A Rocket 3.1 17:09:24 10° N 17:12:54 62° NNW 17:12:54 62° NNW
SL-16 R/B 3.3 17:14:31 34° W 17:14:31 34° W 17:19:14 10° NW
Cosmos 540 Rocket 4.3 17:09:57 10° N 17:14:53 47° ENE 17:19:47 10° SSE
Cosmos 1437 Rocket 4.4 17:19:27 25° NW 17:19:27 25° NW 17:21:47 10° NNW
Cosmos 841 Rocket 3.3 17:13:34 10° NNW 17:18:46 81° WSW 17:20:21 45° S
Cosmos 292 Rocket 3.6 17:14:18 10° NNW 17:19:06 71° WSW 17:19:29 67° SW
BREEZE M DEB (TANK) 4.3 17:20:56 43° SSW 17:23:03 80° SE 17:41:23 10° NE
Resurs 1-4 Rocket 4.1 17:27:27 10° NW 17:29:45 13° WNW 17:29:45 13° WNW
Cosmos 1354 Rocket 4.3 17:29:13 43° W 17:30:01 47° WNW 17:35:03 10° N
Cosmos 1633 2.4 17:31:02 76° NW 17:31:02 76° NW 17:34:29 10° N
Stardust Del rocket 4.3 17:35:33 42° SW 17:37:10 60° S 17:46:34 10° E
Cosmos 1812 2.8 17:38:46 10° N 17:42:39 76° E 17:44:50 24° SSE
Meteor 1-25 Rocket 4.1 17:42:41 24° S 17:46:07 86° W 17:51:42 10° N
Okean O Rocket 4.1 17:43:12 10° NE 17:46:20 19° E 17:49:27 10° SE
Cosmos 1605 Rocket 4.2 17:41:00 10° NNW 17:46:48 48° W 17:49:54 26° SSW
Cosmos 2221 Rocket 4.2 17:43:57 10° NNW 17:47:59 35° W 17:48:20 34° WSW
CZ-3C R/B 3.2 17:49:18 25° SW 17:52:23 34° S 18:23:28 10° ESE
ASC 2 Rocket 4.3 17:51:21 29° WSW 17:53:36 42° SSW 18:00:48 10° SE
Cosmos 2100 Rocket 4.2 17:50:13 10° N 17:56:23 73° E 18:02:36 10° S
GEOS 3 Rocket 3.7 17:56:22 10° NNE 18:01:33 63° WNW 18:04:42 23° SW
Cosmos 1656 3.8 18:00:01 23° SW 18:03:32 64° WNW 18:09:11 10° N
Cosmos 1459 Rocket 4.2 17:57:15 10° N 18:03:38 78° E 18:09:58 10° S
Milstar 3 Cent rocket 3.6 17:48:12 10° W 18:03:40 82° N 18:10:41 10° E
PSLV R/B 4.5 18:00:44 10° NNE 18:04:44 57° E 18:08:47 10° S
GPS 2-14 Rocket1 3.4 18:06:35 27° SW 18:07:56 35° S 18:11:43 10° ESE
Cosmos 968 Rocket 4.2 18:06:20 23° WSW 18:08:51 36° WNW 18:13:42 10° N
SL-19 R/B 3.6 18:11:11 10° S 18:14:10 72° WSW 18:17:32 10° NNW
Cosmos 2123 Rocket 4.1 18:11:09 10° S 18:17:22 83° E 18:23:35 10° N
ATLAS CENTAUR R/B 2.7 18:15:57 17° W 18:17:23 21° WNW 18:20:19 10° N
Gbstr 26 Del rocket 3.2 18:15:33 17° SSW 18:18:11 51° SE 18:22:03 10° NE
Geosat 4.0 18:13:32 10° NNE 18:18:32 68° WNW 18:22:50 14° SSW
Cosmos 1697 Rocket 2.7 18:14:25 14° SSW 18:19:20 76° WNW 18:25:00 10° NNE
PSLV R/B 4.0 18:15:11 10° N 18:19:22 46° WNW 18:22:41 15° SW
Cosmos 1271 Rocket 2.8 18:21:22 11° SSW 18:25:08 65° W 18:29:05 10° N
GPS 2-04 Rocket1 4.0 18:21:39 11° W 18:25:13 33° NNW 18:28:47 10° NE
Cosmos 2369 4.4 18:24:16 15° SW 18:28:20 37° WNW 18:33:32 10° N
Aureole 3 4.5 18:22:57 10° S 18:29:55 80° W 18:35:32 10° N
Intelsat 5-2 Rocket 4.3 18:19:00 10° W 18:33:00 69° S 18:37:17 10° E
Cosmos 2219 3.8 18:30:10 10° NW 18:35:13 35° WSW 18:40:13 10° SSW
ATLAS 3B CENTAUR R/B 1.3 18:34:48 17° SW 18:35:14 18° SSW 18:36:55 10° SSE
Cosmos 1782 Rocket 3.5 18:31:52 10° SSW 18:36:16 71° W 18:40:40 10° N
Lacrosse 5 rocket 3.4 18:32:59 10° S 18:36:29 25° ESE 18:40:06 10° ENE
SEDSat Delta rocket 3.0 18:33:25 10° WNW 18:37:30 59° SSW 18:41:59 10° ESE
USA 229 DEB 3.9 18:30:32 10° NNW 18:37:49 70° WSW 18:45:13 10° SSE
USA 229 3.9 18:30:38 10° NNW 18:37:55 71° WSW 18:45:20 10° SSE
GPS 2-12 Rocket1 4.4 18:35:15 12° SW 18:38:51 26° SSE 18:42:52 10° ESE
Meteor 1-31 Rocket 2.8 18:35:42 10° N 18:39:37 87° W 18:43:32 10° SSW
CZ-3 R/B 3.2 18:22:33 13° SW 18:42:34 49° SSE 18:48:47 10° E
USA 161 3.8 18:41:40 10° ESE 18:42:40 14° ENE 18:43:43 10° NE
NOSS 2-1 (C) 3.6 18:39:10 10° SSW 18:42:54 58° ESE 18:46:28 10° NE
Cosmos 2173 Rocket 4.3 18:38:23 10° NNW 18:44:05 43° W 18:49:47 10° SSW
NOSS 2-1 (D) 3.5 18:40:27 10° SSW 18:44:12 62° ESE 18:47:46 10° NE
Cosmos 1980 Rocket 2.2 18:38:52 10° SSW 18:44:27 84° WNW 18:50:05 10° NNE
ADEOS II 4.1 18:42:59 10° NW 18:44:37 11° WNW 18:46:14 10° W
Cosmos 1378 Rocket 3.7 18:42:05 10° NNW 18:46:24 53° W 18:50:43 10° S
COSMOS 2455 3.8 18:42:25 10° NW 18:47:14 26° WSW 18:52:04 10° SSW
CZ-4B R/B 3.2 18:45:23 10° NNE 18:50:47 86° WNW 18:56:16 10° SSW
Meteor PRIRODA 3.7 18:47:35 10° N 18:51:12 59° WNW 18:54:46 10° SSW
